#timestamp,LO_Frequency,Hit,StdDev 
1540915215.7,286047002.6,N
1540915235.6,286047001.9,N
1540915255.4,286047002.4,N
1540915275.2,286047002.4,N
1540915295.1,286047000.0,N
1540915296.0,286047000.0,N
1540915315.8,286047002.1,N
1540915335.7,286047001.4,N
1540915355.5,286047005.7,Y
1540915375.3,286047005.9,P
1540915395.2,286047003.8,N
1540915415.0,286047005.6,P
1540915415.9,286047005.6,Y
1540915435.7,286046998.7,P
1540915455.6,286046999.1,N
1540915475.4,286046999.3,N
1540915495.3,286046998.7,N
1540915515.1,286047002.5,N
1540915516.0,286047002.5,N
1540915535.8,286047002.2,N
1540915555.7,286047002.4,N
1540915575.5,286047002.3,N
1540915595.3,286047001.3,N
1540915615.2,286047002.1,N
1540915635.0,286047004.3,N
1540915635.9,286047004.3,N
1540915655.8,286047001.8,N
1540915675.6,286047005.7,Y
1540915695.4,286047003.8,P
1540915715.3,286047003.5,P
1540915735.1,286047005.3,P
1540915755.9,286047004.6,Y
1540915775.7,286047004.2,P
1540915795.5,286047004.3,P
1540915815.4,286047004.2,P
1540915835.2,286047003.0,Y
1540915855.0,286046999.0,P
1540915856.0,286046999.0,N
1540915875.8,286046996.8,N
1540915895.6,286046994.9,N
1540915915.5,286046998.0,N
1540915935.3,286046995.7,N
1540915955.1,286046997.5,N
1540915975.9,286046993.4,N
1540915995.7,286046998.0,N
1540916015.5,286046996.8,N
1540916035.4,286047001.2,N
1540916055.2,286046998.5,N
1540916075.1,286047001.2,N
1540916076.0,286047001.2,N
1540916095.8,286047000.5,N
1540916115.6,286047001.1,N
1540916135.5,286046998.6,N
1540916155.3,286046998.7,N
1540916175.2,286046996.6,N
1540916195.9,286046996.9,N
1540916215.7,286046996.6,N
1540916235.6,286046997.9,N
1540916255.4,286046997.1,N
1540916275.2,286046996.6,N
1540916295.1,286046997.8,N
1540916296.0,286046997.8,N
1540916315.8,286046999.1,N
1540916335.7,286046999.0,N
1540916355.5,286046998.1,N
1540916375.3,286047000.9,N
1540916395.2,286046998.5,N
1540916415.0,286047000.0,N
1540916415.9,286047000.0,N
1540916435.7,286047000.5,N
1540916455.6,286047002.3,N
1540916475.4,286047002.7,N
1540916495.3,286047002.5,N
1540916515.1,286047002.0,N
1540916516.0,286047002.0,N
1540916535.8,286047003.8,N
1540916555.7,286047001.6,N
1540916575.5,286047004.3,N
1540916595.3,286047001.6,N
1540916615.2,286047002.2,N
1540916635.0,286047004.0,N
1540916635.9,286047004.0,N
1540916655.8,286047002.5,N
1540916675.6,286047001.3,N
1540916695.4,286047001.4,N
1540916715.3,286047002.9,N
1540916735.1,286047003.3,N
1540916755.8,286047002.9,N
1540916775.7,286047003.0,N
1540916795.5,286047001.7,N
1540916815.4,286047001.6,N
1540916835.2,286047001.9,N
1540916855.0,286047004.1,N
1540916855.9,286047004.1,N
1540916875.8,286047003.4,N
1540916895.6,286047007.2,Y
1540916915.5,286047004.3,P
1540916935.3,286047004.0,P
1540916955.1,286047003.4,P
1540916975.9,286047003.3,Y
1540916995.7,286047001.5,P
1540917015.5,286047003.9,P
1540917035.4,286047001.4,N
1540917055.2,286047005.7,Y
1540917075.1,286047001.3,P
1540917076.0,286047001.3,N
1540917095.8,286047002.6,P
1540917115.6,286047004.4,Y
1540917135.5,286047002.3,P
1540917155.3,286047002.5,P
1540917175.1,286047001.5,P
1540917195.9,286047002.0,Y
1540917215.7,286046999.6,P
1540917235.6,286046998.3,N
1540917255.4,286047000.3,N
1540917275.2,286047002.5,N
1540917295.1,286047002.6,N
1540917296.0,286047002.6,N
1540917315.8,286047001.6,N
1540917335.6,286047003.7,N
1540917355.5,286047003.4,N
1540917375.3,286047005.7,Y
1540917395.2,286047002.5,P
1540917415.9,286046999.9,N
1540917435.7,286046999.7,N
1540917455.6,286047002.3,N
1540917475.4,286047004.4,Y
1540917495.3,286047002.1,P
1540917515.1,286047002.5,P
1540917516.0,286047002.5,P
1540917535.8,286047000.2,N
1540917555.7,286047000.4,N
1540917575.5,286046998.1,N
1540917595.3,286046998.9,N
1540917615.2,286047001.3,N
1540917635.0,286047001.3,N
1540917635.9,286047001.3,N
1540917655.8,286047004.3,Y
1540917675.6,286047002.6,P
1540917695.4,286047002.3,N
1540917715.3,286047002.1,N
1540917735.1,286047001.6,N
1540917755.8,286047001.6,N
1540917775.7,286047001.7,N
1540917795.5,286047002.4,Y
1540917815.4,286046999.0,P
1540917835.2,286047000.9,N
1540917855.0,286047000.1,N
1540917855.9,286047000.1,N
1540917875.8,286047003.8,Y
1540917895.6,286047005.8,P
1540917915.4,286047007.6,N
1540917935.3,286047006.3,N
1540917955.1,286047006.9,N
1540917975.9,286047008.8,Y
1540917995.7,286047003.6,P
1540918015.5,286047005.9,P
1540918035.4,286047003.8,P
1540918055.2,286047003.4,Y
1540918075.1,286047000.6,P
1540918076.0,286047000.6,N
1540918095.8,286047000.8,N
1540918115.6,286046998.7,N
1540918135.5,286047000.6,N
1540918155.3,286047000.6,N
1540918175.1,286047002.2,N
1540918195.9,286047000.0,N
1540918215.7,286047001.1,N
1540918235.6,286047000.0,N
1540918255.4,286047001.2,N
1540918275.2,286047000.8,N
1540918295.1,286046999.7,N
1540918296.0,286046999.7,N
1540918315.8,286047000.9,N
1540918335.6,286046998.6,N
1540918355.5,286047001.5,N
1540918375.3,286047001.8,N
1540918395.2,286047001.3,N
1540918415.9,286047002.0,N
1540918435.7,286047001.3,N
1540918455.6,286047004.0,Y
1540918475.4,286047002.1,P
1540918495.2,286047002.0,P
1540918515.1,286047004.4,P
1540918516.0,286047004.4,Y
1540918535.8,286047000.6,P
1540918555.7,286047000.4,N
1540918575.5,286047001.2,N
1540918595.3,286046999.9,N
1540918615.2,286047002.7,Y
1540918635.0,286047000.6,P
1540918635.9,286047000.6,P
1540918655.8,286047002.0,P
1540918675.6,286047002.3,Y
1540918695.4,286047000.8,P
1540918715.3,286046999.4,P
1540918735.1,286046998.6,N
1540918755.8,286047000.1,N
1540918775.7,286047000.1,N
1540918795.5,286047001.4,N
